SCOUT B DEB, 28793

Orbit data source: Space-Track

SCOUT B DEB, 28793 is space debris in LEO originally from a launch on Tue, 10 Aug 1965 UTC launched from the Wallops Island (WLPIS). Debris objects in space refer to the collection of defunct objects orbiting the Earth. Examples of debris include non-operational satellites, rocket bodies, and fragments generated from explosions, collisions, or faulty payload assembly.

Loading next visibility...
Identifier
28793, 1965-063C
Orbit
LEO
Country
Flag of USUS
Related business
Manufacturer
Unknown
Mission
Spacecraft
Bus & Motor
Unknown
Mass
Unknown
Launch date (UTC)
1965-08-10 (60 years ago)
Launch vehicle
Unknown
Launch site
Wallops Island (WLPIS)
Object type
Payload
Rocket body
Debris
Shape & HBR
Unknown shape, 0.1 m
Radar Cross Section
Small (<0.1 m²)

Expand to show TLE details & history
Last TLE update: 2 weeks ago

TLE from 2 weeks ago
0 SCOUT B DEB
1 28793U 65063C   26024.77616858  .00001849  00000-0  80424-2 0  9993
2 28793  69.1965 165.0553 0763360  86.3097 282.4788 12.13174382459166
Epoch: 2026-01-24T18:37Z
TLE epoch observation values (Epoch: 2026-01-24T18:37:40.965Z)
Latitude
-0.00001°
Longitude
121.53883°
Altitude
1,537.896 km
Speed
7.136 km/s
True Right ascension
11h 00m 13s
True Declination
0° 00' 00"
Sunlit
Object was in full shadow at epoch
Visualization orbit readout
Latitude
Unknown
Longitude
Unknown
Altitude
Unknown
Speed
Unknown
Apparent Right ascension
Unknown
Apparent Declination
Unknown
Sunlit
N/A
Visualization observer readout
Local Sidereal Time
08:55:29
Azimuth
Unknown
Elevation
Unknown
Doppler factor
Unknown
Orbital elements
Apogee altitude
2,231.288 km
Perigee altitude
1,010.091 km
Semi-major axis
7,998.826 km
Eccentricity
0.07634
Inclination
69.1965°
RAAN
165.0553°
Arg. of periapsis
86.3097°
True anomaly
273.79182°
Mean anomaly
282.4788°
Eccentric anomaly
278.14923°
Mean motion
3.03392 °/min
Orbital period
118.66 mins
BSTAR
0.0080424
Loading maneuver chart data...
Computing Atmospheric mass density...
Loading historical data...
Loading historical data...
Loading historical data...
Loading historical data...
Loading historical data...
Loading historical data...
Loading historical data...

Documentation

Showing up to 5 results
|